Location: Magnien
(47.1038°N, 4.4396°E)
Time: 06:08:41
(UTC+00:00)

Daily predictions for brighter satellites

Satellite Brightness Start Highest point End
(mag) Time Altitude Azimuth Time Altitude Azimuth Time Altitude Azimuth
Cosmos 1818 3.6 16:58:34 10° SSW 17:03:59 82° SE 17:09:29 10° NE
Cosmos 1538 Rocket 4.4 16:58:50 10° NNW 17:04:00 71° WSW 17:09:08 10° SSE
CZ-4B R/B 3.3 16:58:37 10° SSE 17:04:12 78° ENE 17:09:53 10° NNW
NOSS 2-1 (C) 4.2 17:02:51 10° S 17:05:38 24° ESE 17:08:26 10° ENE
YAOGAN 1 4.1 17:03:17 10° E 17:06:00 17° ENE 17:08:44 10° NNE
SMAP 3.1 17:01:28 10° SSE 17:06:07 90° SW 17:10:49 10° NNW
Cosmos 1892 Rocket 3.5 17:02:05 10° S 17:06:24 81° E 17:10:45 10° N
MOS 1 Rocket 4.4 17:03:30 10° NE 17:06:43 20° E 17:09:58 10° SE
SJ 16-02 1.4 17:02:31 10° S 17:06:50 60° ESE 17:11:10 10° NNE
Cosmos 2112 Rocket 4.4 17:02:35 10° N 17:07:32 40° ENE 17:12:25 10° SE
CORIOLIS 4.2 17:05:14 10° SSE 17:10:37 85° ENE 17:16:02 10° NNW
ERS-2 4.0 17:08:50 10° ENE 17:10:40 13° E 17:12:29 10° ESE
USA 229 DEB 4.2 17:04:24 10° NW 17:11:21 48° NE 17:18:41 10° ESE
USA 229 4.2 17:04:31 10° NW 17:11:26 47° NE 17:18:45 10° ESE
NOSS 2-1 (D) 4.0 17:08:36 10° S 17:11:31 28° ESE 17:14:29 10° ENE
Okean O Rocket 1.6 17:07:53 10° SSE 17:12:18 78° ENE 17:16:44 10° N
SL-24 R/B 4.4 17:09:09 10° SSE 17:13:37 86° WSW 17:18:33 10° NNW
Cosmos 1340 4.0 17:11:29 10° SE 17:14:16 20° E 17:17:03 10° NE
Cosmos 1812 Rocket 4.4 17:13:36 10° NNE 17:17:26 28° ENE 17:21:13 10° SE
Cosmos 990 Rocket 4.5 17:13:46 10° S 17:18:34 40° ESE 17:23:24 10° NE
Okean-O 3.7 17:17:04 10° ESE 17:20:34 23° ENE 17:24:05 10° NNE
Cosmos 1455 2.2 17:17:09 10° N 17:20:58 60° ENE 17:24:46 10° SSE
SeaSat 1 3.8 17:17:14 10° NNE 17:21:44 36° NW 17:26:12 10° WSW
Cosmos 158 Rocket 4.1 17:17:45 10° NNW 17:23:09 86° ENE 17:28:34 10° SSE
Helios 1A Rocket 4.3 17:21:45 10° ESE 17:24:37 18° ENE 17:27:30 10° NNE
Cosmos 2263 Rocket 4.1 17:20:32 10° WSW 17:25:11 25° NW 17:29:51 10° N
CZ-2C R/B 3.5 17:20:18 10° SE 17:25:30 47° ENE 17:30:58 10° N
H-2A R/B 3.5 17:21:39 10° S 17:25:40 52° W 17:29:53 10° NNW
SKYMED 2 4.1 17:21:52 10° NNE 17:25:57 38° E 17:30:01 10° SSE
USA 290 4.0 17:24:14 10° NNE 17:26:07 15° NE 17:27:14 13° ENE
ARGOS 4.2 17:22:25 10° ESE 17:26:29 22° ENE 17:30:34 10° N
Aureole 2 Rocket 3.6 17:23:48 10° SW 17:26:40 36° WNW 17:29:36 10° N
NOSS 3-1 (A) 4.2 17:19:55 10° NW 17:26:59 51° NE 17:35:13 10° ESE
CZ-2D R/B 3.6 17:23:26 10° SE 17:27:03 41° ENE 17:30:40 10° N
Lacrosse 5 3.4 17:26:04 10° WNW 17:30:45 39° SW 17:35:25 10° SSE
Meteor 2-13 Rocket 4.4 17:26:04 10° S 17:32:09 73° E 17:38:18 10° NNE
ATLAS 2AS CENTAUR R/B 4.4 17:26:20 10° WNW 17:32:53 27° NNW 17:39:14 10° NE
Cosmos 1939 Rocket 2.8 17:29:59 10° SSE 17:34:05 77° ENE 17:38:08 10° N
CZ-2C R/B 4.2 17:31:47 10° NE 17:34:43 15° E 17:37:49 10° ESE
YAOGAN 3 4.5 17:36:13 10° SSE 17:40:33 74° ENE 17:44:56 10° N
Feng Yun 1-1 Rocket 4.2 17:36:00 10° SSE 17:41:27 75° ENE 17:47:04 10° NNW
Meteor 1-21 Rocket 4.1 17:36:07 10° S 17:41:37 74° E 17:47:12 10° NNE
Aureole 3 Rocket 3.2 17:40:14 10° NNE 17:43:07 31° ENE 17:46:28 10° SE
Cosmos 2058 Rocket 4.3 17:40:42 10° NNW 17:45:01 46° W 17:49:20 10° SSW
Cosmos 1092 Rocket 4.0 17:39:44 10° S 17:45:46 59° E 17:51:48 10° NNE
Iridium 4 Rocket 3.8 17:41:42 10° N 17:46:56 44° E 17:51:43 10° SSE
ISS -3.0 17:46:29 10° W 17:49:43 43° NNW 17:51:39 21° NE
Cosmos 2344 4.3 17:42:48 10° NW 17:51:49 66° NE 18:04:21 10° SE
USA 234 4.1 17:47:42 14° ENE 17:52:41 37° N 17:58:35 10° WNW
Cosmos 1626 Rocket 3.5 17:49:54 10° S 17:54:18 89° E 17:58:46 10° N
Cosmos 405 3.2 17:52:01 10° N 17:55:26 44° ENE 17:58:48 10° SSE
Nadezhda 4 Rocket 4.2 17:50:29 10° SSW 17:56:42 74° W 18:02:53 10° N
BREEZE-M DEB (TANK) 1.9 17:55:00 10° WNW 17:57:10 52° N 17:57:53 34° ENE
Cosmos 1833 Rocket 2.8 17:53:03 10° NNW 17:58:32 50° ENE 18:03:59 10° SE
CZ-4 R/B 1.4 17:54:56 10° SSE 17:58:54 56° ENE 18:02:48 10° N
Cosmos 44 3.5 17:55:24 10° SW 18:00:12 76° NW 18:04:49 13° NE
NOSS 2-1 (E) 2.8 18:03:16 10° SW 18:06:34 85° WNW 18:08:25 26° NE
Cosmos 1898 Rocket 3.4 18:01:26 10° SSW 18:06:42 86° ESE 18:11:58 10° NNE
COSMOS 2406 3.2 18:01:40 10° NNW 18:07:28 66° ENE 18:13:11 10° SE
Aureole 3 4.5 18:04:43 10° NNW 18:07:37 34° W 18:10:21 10° SSW
Cosmos 1703 3.4 18:03:52 10° SSW 18:07:43 75° W 18:11:37 10° N
X-37B 1.0 18:06:09 10° W 18:09:17 57° S 18:10:23 34° ESE
Cosmos 1680 Rocket 4.2 18:05:09 10° NNW 18:10:17 56° WSW 18:15:21 10° S
COSMOS 2455 4.4 18:07:57 10° WSW 18:13:16 31° NW 18:18:35 10° NNE
Cosmos 2082 Rocket 2.7 18:08:32 10° NNW 18:13:54 39° NE 18:16:36 25° ESE
Cosmos 1689 Rocket 2.2 18:14:20 47° SE 18:14:20 47° SE 18:16:49 10° S
COSMO-SKYMED 1 2.9 18:09:47 10° N 18:14:07 68° WNW 18:18:25 10° SSW
Cosmos 1844 Rocket 4.0 18:11:09 10° WSW 18:16:25 39° NW 18:21:42 10° NNE
Cosmos 372 Rocket 4.3 18:12:14 10° S 18:17:06 42° ESE 18:19:29 26° NE
Meteor 2-15 4.4 18:11:38 10° N 18:17:47 68° ENE 18:23:53 10° SSE
Meteor 2-8 Rocket 4.5 18:13:17 10° N 18:19:24 85° W 18:25:32 10° S
Cosmos 1758 Rocket 3.5 18:15:23 10° S 18:19:48 68° E 18:24:17 10° NNE
TELKOM 3 4.3 18:17:46 10° WNW 18:19:21 32° NW 18:19:21 32° NW
PSLV R/B 3.8 18:17:34 10° NNE 18:21:49 75° ESE 18:26:01 10° S
Cosmos-2242 2.9 18:17:35 10° N 18:21:53 67° E 18:26:10 10° SSE
Cosmos 2098 Rocket 4.3 18:19:06 10° S 18:26:28 79° E 18:33:44 10° N
Cosmos 1346 Rocket 2.8 18:23:14 10° S 18:27:04 55° E 18:27:48 47° NE
H-2A R/B 2.0 18:25:03 10° SSE 18:30:05 88° WSW 18:35:19 10° NNW
CZ-4B R/B 3.3 18:27:51 10° N 18:30:49 30° WNW 18:33:41 10° SW
Cosmos 2026 Rocket 4.0 18:26:11 10° S 18:32:20 83° W 18:38:37 10° N
Cosmos 1937 Rocket 3.6 18:27:09 10° SSW 18:32:28 80° WNW 18:37:18 13° NNE
Cosmos 1417 Rocket 4.4 18:27:31 10° N 18:33:43 63° ENE 18:39:57 10° SSE
ATLAS 5 CENTAUR R/B 4.1 18:34:01 10° NW 18:36:11 13° N 18:38:05 11° NNE
Cosmos 1553 Rocket 3.9 18:30:49 10° N 18:37:15 76° E 18:43:34 10° SSE
CSL-04 Rocket 3.6 18:32:16 10° SSE 18:37:41 74° ENE 18:43:13 10° NNW
Cosmos 2278 Rocket 2.1 18:35:25 10° SSW 18:41:04 75° ESE 18:44:01 29° NE
YAOGAN 1 3.0 18:37:23 10° S 18:41:39 61° WSW 18:45:58 10° NNW
ERS-2 3.0 18:41:50 16° N 18:44:29 49° WNW 18:47:59 10° SW
MOS 1 Rocket 4.3 18:41:09 10° N 18:45:11 41° WNW 18:49:14 10° SW
SJ 16-02 3.9 18:42:49 10° W 18:45:49 18° NW 18:48:50 10° N
Cosmos 1340 4.5 18:46:17 10° SW 18:49:39 31° WNW 18:53:02 10° N
CZ-4C R/B 4.3 18:45:23 10° NW 18:49:48 19° N 18:51:43 17° NNE
Meteor 2-15 Rocket 4.4 18:43:43 10° N 18:49:55 89° W 18:56:04 10° S
CZ-3B R/B 3.0 18:47:22 10° WNW 18:50:28 59° SSW 19:00:50 10° SE
Cosmos 1825 Rocket 3.6 18:48:18 10° SSW 18:52:41 75° W 18:55:29 22° N
Okean-O 3.9 18:52:37 10° S 18:56:49 42° W 19:01:03 10° NNW
Cosmos 1655 Rocket 3.9 18:52:47 10° S 18:58:55 65° E 19:05:05 10° NNE
Helios 1A Rocket 3.8 18:55:24 10° S 18:59:25 49° W 19:03:28 10° NNW
USA 290 3.9 18:57:41 10° NW 19:00:05 34° WNW 19:00:05 34° WNW
S3M 3.8 18:56:26 10° N 19:02:34 82° E 19:08:42 10° S
ARGOS 3.6 19:01:01 10° S 19:06:19 62° W 19:11:40 10° NNW
CZ-2C R/B 2.6 19:13:14 35° NNE 19:15:43 88° WNW 19:21:21 10° SSW
Cosmos 1953 Rocket 4.3 19:13:34 10° SSW 19:16:54 47° SW 19:16:54 47° SW
NOSS 2-2 (E) 4.5 19:18:05 10° NW 19:22:58 62° NNE 19:22:58 62° NNE
ATLAS 2AS CENTAUR R/B 4.3 19:20:34 10° NW 19:26:32 23° N 19:27:37 22° NNE
ISS -0.8 19:23:46 10° WNW 19:24:37 16° WNW 19:24:37 16° WNW
CZ-4 R/B 4.5 19:32:03 10° WSW 19:34:14 14° W 19:36:24 10° WNW
USA 234 3.6 19:35:03 48° NNE 19:35:03 48° NNE 19:41:09 10° NW
Cosmos 1833 Rocket 4.5 19:37:28 10° NW 19:42:11 28° WSW 19:46:53 10° SSW
Cosmos 2082 Rocket 3.4 19:52:43 10° NW 19:58:00 39° WSW 19:58:32 38° WSW
Cosmos 2278 Rocket 4.2 20:21:17 10° W 20:25:46 23° NW 20:25:56 23° NW
CZ-4C R/B 4.5 20:34:20 10° NNW 20:36:54 22° NNW 20:36:54 22° NNW
